Location: Lugrin
(46.4033°N, 6.6674°E)
Time: 06:26:45
(UTC+00:00)

CZ-2C R/B - Pass Details

Date: 18 September 2020
Orbit: 640 x 704 km, 98.4° (Epoch: 23 October)

Event Time Altitude Azimuth Distance (km) Brightness Sun altitude
Rises 19:59:19 0° 14° (NNE) 2,961 7.3 -24.0°
Reaches altitude 10° 20:01:31 10° 15° (NNE) 2,051 6.4 -24.3°
Enters shadow 20:05:31 71° 24° (NNE) 688 3.7 -24.9°
